[[{"header":{"parameterUnit":"m.s-1","parameterCategory":2,"la1":30.2991,"la2":30.254,"lo1":-89.0895,"lo2":-89.0444,"dy":0.0017,"dx":0.0017,"nx":28,"ny":28,"refTime":"2024-06-29T03:00:00:Z","depth":"0","parameterNumber":2,"parameterNumberName":"U-component_of_CURRENTS"},"data":[0,0,0,0,0,0,0,0,0,0,0,0,0,0,0,0,0,0,0,0,0,0,0,0,0,0,0,0,0,0,0,0,0,0,0,0,0,0,0,0,0,0,0,0,0,0,0,0,0,0,0,0,0,0,0,0,0,0,0.2003,0.2003,0,0.1975,0.1975,0.1975,0.1913,0.1912,0.1911,0.191,0.1913,0.1914,0.1915,0,0,0,0,0,0,0,0,0,0,0,0,0,0.1945,0.1947,0.2003,0.2003,0.2003,0.1976,0.1975,0.1974,0.1913,0.1912,0.191,0.1909,0.1912,0.1913,0.1915,0,0,0,0,0,0,0,0,0,0,0,0,0,0.1948,0.1947,0.2003,0.197,0.1967,0.1976,0.1975,0.1974,0.1913,0.1912,0.191,0.1909,0.1912,0.1913,0.1915,0.1958,0,0,0.192,0.1921,0,0,0,0,0,0,0,0,0.1948,0.195,0.1975,0.1973,0.1969,0.1948,0.1956,0.1971,0.1914,0.1932,0.191,0.1908,0.193,0.193,0.1925,0.1958,0.1958,0.192,0.1921,0.1922,0.1922,0,0,0,0,0,0,0,0.1948,0.195,0.199,0.1975,0.1972,0.1937,0.1936,0.1958,0.1939,0.193,0.1926,0.1926,0.1928,0.1924,0.1925,0.1958,0.192,0.1922,0.1923,0.1923,0.2042,0.2044,0,0,0,0,0,0,0.196,0.1951,0.1991,0.199,0.1956,0.194,0.1938,0.1955,0.1938,0.1935,0.1928,0.1924,0.1922,0.1923,0.1925,0.1985,0.1922,0.1923,0.1924,0.2039,0.2042,0.2044,0,0,0,0,0,0,0.1959,0.1965,0.1992,0.1969,0.1971,0.1943,0.1961,0.1955,0.1946,0.1937,0.1933,0.1924,0.192,0.1922,0.1948,0.1984,0.1924,0.1926,0.2037,0.204,0.2043,0.2099,0,0,0,0,0,0,0.1958,0.1965,0.1981,0.1971,0.1973,0.2,0.1963,0.1956,0.195,0.1944,0.1933,0.1931,0.1919,0.1946,0.195,0.1985,0.1927,0.2034,0.2038,0.2042,0.2094,0.2103,0.2111,0,0,0,0,0,0.1956,0.1981,0.1983,0.1987,0.1997,0.2001,0.1998,0.197,0.1951,0.1954,0.195,0.1931,0.1974,0.1949,0.1953,0.1989,0.2032,0.2037,0.2042,0.209,0.2102,0.2111,0,0,0,0,0,0,0.1963,0.1977,0.1978,0.2006,0.2007,0.1991,0.1995,0.1978,0.1977,0.1974,0.1956,0.1956,0.1997,0.1991,0.1963,0.2038,0.2003,0.2008,0.2038,0.2049,0.2057,0.2033,0.1928,0,0,0,0,0,0.1977,0.1996,0.2004,0.2025,0.2032,0.2018,0.2016,0.2002,0.1999,0.1994,0.1985,0.1993,0.2024,0.203,0.205,0.2089,0.2085,0.2118,0.2126,0.2133,0.2119,0.216,0.2171,0.206,0.206,0.206,0,0,0.1982,0.1995,0.2004,0.2027,0.2027,0.2037,0.2012,0.2018,0.2021,0.2001,0.2005,0.2026,0.2044,0.2086,0.2104,0.208,0.2168,0.214,0.2145,0.2126,0.2166,0.2177,0.2186,0.2064,0.2063,0.2062,0,0,0.1995,0.2023,0.2038,0.2047,0.2059,0.2056,0.2061,0.2055,0.2049,0.2068,0.2066,0.21,0.2124,0.2145,0.2162,0.2233,0.2218,0.2249,0.2265,0.2307,0.2315,0.2323,0.2344,0.2353,0.2246,0.2246,0.2246,0,0.2,0.2023,0.2041,0.2058,0.2063,0.2067,0.2076,0.2084,0.2081,0.2087,0.2076,0.2135,0.2152,0.2213,0.2236,0.2251,0.2262,0.2222,0.2316,0.2323,0.233,0.235,0.2359,0.225,0.2249,0.2249,0.2249,0,0.2016,0.2036,0.205,0.2073,0.2087,0.2098,0.2115,0.2125,0.2124,0.2128,0.2179,0.2208,0.2234,0.2266,0.227,0.234,0.2329,0.2327,0.2283,0.2344,0.2362,0.237,0.2254,0.2253,0.2252,0.2251,0,0,0.2006,0.2051,0.205,0.2053,0.2093,0.2093,0.213,0.2151,0.2154,0.2188,0.2199,0.2279,0.229,0.231,0.2336,0.2372,0.2443,0.2367,0.2368,0.2375,0.2524,0.2568,0.2581,0.2459,0.2461,0.2462,0.252,0,0.2003,0.2023,0.2055,0.2064,0.207,0.2102,0.2123,0.2149,0.2171,0.2186,0.2249,0.2279,0.2311,0.2327,0.2379,0.2425,0.2466,0.2426,0.2473,0.2474,0.2496,0.2593,0.2669,0.2732,0.2528,0.253,0.2531,0,0.1991,0.2005,0.2017,0.2037,0.2045,0.2056,0.2078,0.2103,0.2157,0.2176,0.2236,0.2271,0.2352,0.2355,0.2472,0.2445,0.2487,0.2519,0.2522,0.2543,0.2534,0.2638,0.2755,0.2796,0.2543,0.2542,0.2541,0,0.193,0.1966,0.1968,0.1978,0.2016,0.2024,0.2044,0.2092,0.2111,0.2171,0.2188,0.2284,0.2325,0.2407,0.2496,0.2484,0.2603,0.2594,0.2672,0.2674,0.2736,0.2742,0.2885,0.2668,0.2668,0.2667,0.2667,0,0.1899,0.1892,0.1934,0.1929,0.1927,0.1973,0.1979,0.2014,0.2066,0.2092,0.2178,0.2216,0.234,0.2425,0.2498,0.2626,0.2617,0.2691,0.2706,0.276,0.2767,0.28,0.274,0.267,0.2669,0.2669,0.2668,0,0.1829,0.1861,0.1854,0.1887,0.1898,0.1892,0.1937,0.1944,0.2003,0.204,0.2063,0.2178,0.231,0.243,0.2561,0.2633,0.2707,0.2775,0.2824,0.2845,0.2959,0.2897,0.2729,0.269,0.2878,0.2879,0.2881,0,0.1793,0.1786,0.181,0.1807,0.1822,0.1831,0.1843,0.1905,0.1924,0.2018,0.2034,0.2169,0.2277,0.2501,0.2688,0.2855,0.2753,0.2973,0.2974,0.2998,0.294,0.2675,0.2635,0.3078,0.3081,0.3083,0.3085,0,0.1722,0.1734,0.1738,0.1738,0.1744,0.1752,0.1775,0.1781,0.1861,0.1912,0.1996,0.2089,0.236,0.2607,0.2844,0.295,0.2897,0.3025,0.3056,0.3118,0.283,0.2792,0.2978,0.3106,0.3104,0.3103,0.3101,0.3101,0.1666,0.1655,0.1668,0.1666,0.1671,0.167,0.1663,0.1707,0.1749,0.1828,0.1941,0.2089,0.2498,0.2882,0.3005,0.3289,0.3034,0.3311,0.3235,0.2963,0.292,0.3141,0.3281,0.328,0.3279,0.3279,0.3278,0,0.1594,0.1598,0.1595,0.1594,0.1577,0.1605,0.1618,0.1619,0.1659,0.1785,0.1888,0.2259,0.2653,0.2997,0.3418,0.3488,0.3358,0.3478,0.3182,0.314,0.3415,0.3433,0.3608,0.3608,0.3608,0.3608,0.3608,0.3608,0.1552,0.1531,0.1542,0.1507,0.1504,0.1483,0.148,0.1509,0.1586,0.1739,0.1903,0.2061,0.248,0.3146,0.3519,0.3558,0.3369,0.3283,0.317,0.3494,0.3473,0.3453,0.3466,0.3644,0.3644,0.2871,0.2866,0.2862]},{"header":{"parameterUnit":"m.s-1","parameterCategory":2,"la1":30.2991,"la2":30.254,"lo1":-89.0895,"lo2":-89.0444,"dy":0.0017,"dx":0.0017,"nx":28,"ny":28,"refTime":"2024-06-29T03:00:00:Z","depth":"0","parameterNumber":3,"parameterNumberName":"V-component_of_CURRENTS"},"data":[0,0,0,0,0,0,0,0,0,0,0,0,0,0,0,0,0,0,0,0,0,0,0,0,0,0,0,0,0,0,0,0,0,0,0,0,0,0,0,0,0,0,0,0,0,0,0,0,0,0,0,0,0,0,0,0,0,0,-0.0308,-0.0308,0,-0.0311,-0.0311,-0.0311,-0.0337,-0.0338,-0.0339,-0.034,-0.0352,-0.0352,-0.0351,0,0,0,0,0,0,0,0,0,0,0,0,0,-0.0333,-0.0332,-0.0308,-0.0308,-0.0308,-0.0311,-0.0311,-0.0311,-0.0337,-0.0338,-0.0339,-0.034,-0.0352,-0.0352,-0.0351,0,0,0,0,0,0,0,0,0,0,0,0,0,-0.0326,-0.0332,-0.0308,-0.0323,-0.0324,-0.0311,-0.0311,-0.0311,-0.0337,-0.0338,-0.0339,-0.034,-0.0352,-0.0352,-0.0351,-0.0325,0,0,-0.035,-0.0349,0,0,0,0,0,0,0,0,-0.0327,-0.0325,-0.032,-0.0322,-0.0323,-0.0326,-0.0324,-0.0316,-0.0337,-0.0331,-0.034,-0.0341,-0.0344,-0.0344,-0.0341,-0.0326,-0.0326,-0.0349,-0.0349,-0.0349,-0.0349,0,0,0,0,0,0,0,-0.0327,-0.0325,-0.0308,-0.032,-0.0322,-0.0331,-0.0332,-0.0323,-0.0331,-0.0332,-0.0334,-0.0335,-0.0345,-0.0341,-0.0341,-0.0326,-0.0349,-0.0349,-0.0349,-0.0348,-0.0318,-0.0317,0,0,0,0,0,0,-0.0327,-0.0325,-0.0308,-0.0308,-0.0329,-0.033,-0.033,-0.0323,-0.0331,-0.0333,-0.0334,-0.0337,-0.0341,-0.0342,-0.0342,-0.0323,-0.0349,-0.0348,-0.0348,-0.0318,-0.0318,-0.0317,0,0,0,0,0,0,-0.0327,-0.0325,-0.0308,-0.0319,-0.0317,-0.0329,-0.032,-0.0323,-0.0321,-0.0333,-0.0335,-0.0331,-0.0342,-0.0343,-0.0336,-0.0324,-0.0348,-0.0348,-0.0319,-0.0318,-0.0317,-0.0279,0,0,0,0,0,0,-0.0328,-0.0325,-0.0317,-0.0318,-0.0317,-0.0298,-0.0319,-0.0322,-0.032,-0.0323,-0.033,-0.0333,-0.0343,-0.0336,-0.0335,-0.0323,-0.0347,-0.0319,-0.0319,-0.0318,-0.0281,-0.0277,-0.0273,0,0,0,0,0,-0.0328,-0.0315,-0.0317,-0.0315,-0.0307,-0.0298,-0.0297,-0.0309,-0.0319,-0.0312,-0.0321,-0.0332,-0.033,-0.0335,-0.0334,-0.0322,-0.032,-0.0319,-0.0318,-0.0282,-0.0278,-0.0274,0,0,0,0,0,0,-0.0336,-0.0316,-0.0319,-0.0304,-0.03,-0.0303,-0.0298,-0.0303,-0.0302,-0.0308,-0.032,-0.0322,-0.0317,-0.0321,-0.0326,-0.0312,-0.0329,-0.0327,-0.0302,-0.0298,-0.0294,-0.0291,-0.0347,0,0,0,0,0,-0.033,-0.0308,-0.0302,-0.0292,-0.0286,-0.0289,-0.0287,-0.0294,-0.0295,-0.0296,-0.0298,-0.0304,-0.0308,-0.0305,-0.031,-0.0291,-0.031,-0.0285,-0.0281,-0.0278,-0.0275,-0.03,-0.0299,-0.0314,-0.0314,-0.0314,0,0,-0.0335,-0.0319,-0.0311,-0.0291,-0.0289,-0.0273,-0.029,-0.0284,-0.0274,-0.0296,-0.0279,-0.0292,-0.0303,-0.0292,-0.0289,-0.0294,-0.0282,-0.0277,-0.0274,-0.0273,-0.0299,-0.0297,-0.0296,-0.0313,-0.0313,-0.0313,0,0,-0.0329,-0.0315,-0.0293,-0.0279,-0.0267,-0.0263,-0.0259,-0.0252,-0.0252,-0.0237,-0.0258,-0.0261,-0.0253,-0.0262,-0.0266,-0.0242,-0.0267,-0.0244,-0.0215,-0.0239,-0.0238,-0.0237,-0.0252,-0.0253,-0.0236,-0.0236,-0.0236,0,-0.0337,-0.0304,-0.0289,-0.0264,-0.025,-0.0255,-0.0234,-0.0229,-0.0223,-0.022,-0.0229,-0.0232,-0.024,-0.0236,-0.023,-0.0233,-0.0251,-0.023,-0.0234,-0.0234,-0.0235,-0.025,-0.0252,-0.0234,-0.0234,-0.0234,-0.0234,0,-0.0312,-0.0285,-0.0271,-0.0233,-0.0217,-0.0201,-0.0189,-0.0177,-0.0176,-0.0177,-0.0173,-0.0185,-0.019,-0.0191,-0.0201,-0.0202,-0.0215,-0.0232,-0.0245,-0.0231,-0.0248,-0.0251,-0.0231,-0.0232,-0.0232,-0.0233,0,0,-0.0326,-0.0264,-0.0258,-0.0232,-0.0197,-0.0182,-0.0157,-0.0138,-0.0126,-0.0127,-0.0115,-0.0123,-0.014,-0.0145,-0.0161,-0.0174,-0.0186,-0.0197,-0.02,-0.0212,-0.0234,-0.0232,-0.0235,-0.0207,-0.0208,-0.0208,-0.0244,0,-0.031,-0.0257,-0.0227,-0.018,-0.0151,-0.0134,-0.0108,-0.0095,-0.0089,-0.0078,-0.0098,-0.0098,-0.012,-0.0123,-0.014,-0.0174,-0.0192,-0.0174,-0.0247,-0.0249,-0.0249,-0.0238,-0.0133,-0.0156,-0.0247,-0.0247,-0.0247,0,-0.0287,-0.0251,-0.0203,-0.0142,-0.0129,-0.0104,-0.0064,-0.0042,-0.0033,-0.0031,-0.004,-0.006,-0.0072,-0.0099,-0.015,-0.0139,-0.0184,-0.0213,-0.0216,-0.023,-0.0252,-0.0187,-0.0157,-0.014,-0.0252,-0.0251,-0.0251,0,-0.0293,-0.0228,-0.0189,-0.0168,-0.0109,-0.0087,-0.0057,-0.0034,-0.001,-0.0008,0.0003,-0.0026,-0.0034,-0.0092,-0.0143,-0.0154,-0.0203,-0.0229,-0.0271,-0.0272,-0.0204,-0.0198,-0.0165,-0.0279,-0.0279,-0.0278,-0.0278,0,-0.0274,-0.0239,-0.0189,-0.0165,-0.012,-0.0081,-0.0038,-0.0016,0.0014,0.0047,0.0022,0.004,-0.0034,-0.0067,-0.0131,-0.0196,-0.0198,-0.0263,-0.0281,-0.0187,-0.0179,-0.018,-0.0198,-0.028,-0.028,-0.0279,-0.0279,0,-0.0276,-0.0243,-0.0194,-0.0137,-0.0119,-0.0087,-0.0018,0.0015,0.004,0.0083,0.0086,0.0084,0.0052,-0.002,-0.0104,-0.0172,-0.0277,-0.0271,-0.0149,-0.0152,-0.0189,-0.0209,-0.0436,-0.0497,-0.0328,-0.0328,-0.0329,0,-0.0267,-0.0245,-0.0185,-0.0153,-0.0124,-0.0072,-0.0032,0.0016,0.0058,0.0119,0.0144,0.013,0.0152,0.004,-0.0071,-0.0178,-0.0272,-0.0187,-0.0195,-0.017,-0.0205,-0.0403,-0.0452,-0.0086,-0.0084,-0.0082,-0.0081,0,-0.0255,-0.024,-0.0201,-0.0143,-0.0097,-0.0034,0.0031,0.0068,0.0135,0.0189,0.0266,0.0293,0.0212,0.0189,0.0035,-0.0057,-0.0224,-0.0162,-0.0158,-0.003,-0.0222,-0.0292,-0.0085,-0.0067,-0.0069,-0.007,-0.0071,-0.0071,-0.0252,-0.0225,-0.0178,-0.0119,-0.0064,0.0017,0.0087,0.0167,0.0259,0.0414,0.0401,0.0558,0.0528,0.0352,0.0136,-0.0018,-0.0178,-0.002,-0.0053,-0.0264,-0.0309,-0.0078,-0.0073,-0.0074,-0.0076,-0.0077,-0.0077,0,-0.0237,-0.0199,-0.0147,-0.0067,0.0005,0.0033,0.0145,0.0252,0.039,0.0584,0.0707,0.0973,0.0854,0.0674,0.0466,0.0227,-0.005,0.0105,-0.0076,-0.0136,0.0108,0.0145,0.0225,0.0225,0.0225,0.0225,0.0225,0.0225,-0.0222,-0.017,-0.0135,-0.0016,0.0047,0.0185,0.0266,0.0437,0.0621,0.1002,0.1291,0.146,0.1592,0.101,0.0618,0.0436,0.0146,-0.0006,-0.0165,0.0161,0.0149,0.0137,0.017,0.0255,0.0255,-0.0423,-0.0427,-0.043]}],[{"header":{"parameterUnit":"m.s-1","parameterCategory":2,"la1":30.2991,"la2":30.254,"lo1":-89.0895,"lo2":-89.0444,"dy":0.0017,"dx":0.0017,"nx":28,"ny":28,"refTime":"2024-06-29T03:00:00:Z","depth":"2","parameterNumber":2,"parameterNumberName":"U-component_of_CURRENTS"},"data":[0,0,0,0,0,0,0,0,0,0,0,0,0,0,0,0,0,0,0,0,0,0,0,0,0,0,0,0,0,0,0,0,0,0,0,0,0,0,0,0,0,0,0,0,0,0,0,0,0,0,0,0,0,0,0,0,0,0,-0.0807,-0.0807,0,-0.0767,-0.0767,-0.0766,-0.0736,-0.0735,-0.0735,-0.0735,-0.0702,-0.0701,-0.0701,0,0,0,0,0,0,0,0,0,0,0,0,0,-0.0872,-0.0871,-0.0807,-0.0807,-0.0806,-0.0767,-0.0767,-0.0766,-0.0736,-0.0735,-0.0735,-0.0735,-0.0702,-0.0701,-0.0701,0,0,0,0,0,0,0,0,0,0,0,0,0,-0.0839,-0.087,-0.0807,-0.0786,-0.0784,-0.0767,-0.0767,-0.0766,-0.0736,-0.0735,-0.0735,-0.0735,-0.0702,-0.0702,-0.0701,-0.0703,0,0,-0.0698,-0.0697,0,0,0,0,0,0,0,0,-0.0841,-0.0836,-0.079,-0.0788,-0.0785,-0.0756,-0.0777,-0.0745,-0.0736,-0.0754,-0.0735,-0.0734,-0.0721,-0.0719,-0.0712,-0.0701,-0.07,-0.0698,-0.0697,-0.0697,-0.0696,0,0,0,0,0,0,0,-0.0843,-0.0838,-0.0791,-0.0789,-0.0787,-0.0784,-0.0779,-0.0771,-0.074,-0.0752,-0.075,-0.0746,-0.072,-0.0713,-0.0711,-0.0699,-0.0698,-0.0697,-0.0696,-0.0696,-0.0644,-0.0643,0,0,0,0,0,0,-0.0848,-0.084,-0.0792,-0.079,-0.0813,-0.0783,-0.0777,-0.0766,-0.074,-0.0736,-0.0746,-0.0745,-0.0714,-0.0712,-0.0709,-0.0644,-0.0697,-0.0696,-0.0695,-0.0645,-0.0644,-0.0643,0,0,0,0,0,0,-0.0849,-0.0844,-0.0794,-0.0815,-0.0808,-0.0783,-0.077,-0.0765,-0.0732,-0.0736,-0.0731,-0.0716,-0.0714,-0.0711,-0.0681,-0.0645,-0.0695,-0.0695,-0.0646,-0.0644,-0.0643,-0.0555,0,0,0,0,0,0,-0.0851,-0.0844,-0.0824,-0.0815,-0.0807,-0.077,-0.077,-0.0765,-0.0732,-0.0729,-0.0708,-0.0706,-0.0713,-0.0683,-0.068,-0.0644,-0.0694,-0.0647,-0.0645,-0.0644,-0.0559,-0.0551,-0.0544,0,0,0,0,0,-0.0853,-0.0829,-0.0823,-0.0816,-0.0784,-0.0769,-0.0765,-0.0746,-0.0731,-0.0714,-0.0698,-0.0706,-0.0672,-0.0681,-0.0678,-0.0641,-0.0647,-0.0645,-0.0644,-0.0563,-0.0553,-0.0545,0,0,0,0,0,0,-0.0841,-0.0823,-0.0816,-0.0786,-0.0773,-0.0764,-0.0738,-0.073,-0.0702,-0.0686,-0.0691,-0.0688,-0.065,-0.0663,-0.0673,-0.0626,-0.0662,-0.066,-0.0602,-0.0592,-0.0585,-0.0567,-0.0693,0,0,0,0,0,-0.0832,-0.0806,-0.0798,-0.0769,-0.0758,-0.0743,-0.0727,-0.0716,-0.0698,-0.0683,-0.0667,-0.0654,-0.0646,-0.0631,-0.0627,-0.0596,-0.0581,-0.0574,-0.0567,-0.056,-0.0546,-0.0505,-0.0492,-0.0637,-0.0637,-0.0637,0,0,-0.0816,-0.0804,-0.0786,-0.0764,-0.0746,-0.0721,-0.0731,-0.0697,-0.067,-0.0685,-0.0626,-0.0624,-0.0634,-0.0599,-0.0584,-0.0599,-0.0506,-0.0558,-0.0552,-0.0541,-0.0502,-0.0487,-0.0475,-0.0635,-0.0636,-0.0636,0,0,-0.0774,-0.0761,-0.0723,-0.0711,-0.0684,-0.0684,-0.0669,-0.0642,-0.0621,-0.0582,-0.0584,-0.0557,-0.0538,-0.0532,-0.0533,-0.0483,-0.0471,-0.0481,-0.0419,-0.038,-0.0367,-0.0355,-0.0288,-0.0272,-0.0473,-0.0473,-0.0473,0,-0.0754,-0.0706,-0.0711,-0.0675,-0.0652,-0.0662,-0.0618,-0.061,-0.0574,-0.0544,-0.0553,-0.05,-0.0509,-0.0466,-0.045,-0.0463,-0.0427,-0.0449,-0.0367,-0.0356,-0.0345,-0.028,-0.0263,-0.0469,-0.0469,-0.047,-0.047,0,-0.0686,-0.0646,-0.0622,-0.0583,-0.0567,-0.0529,-0.0527,-0.0495,-0.0475,-0.0462,-0.0405,-0.0412,-0.0373,-0.0381,-0.0399,-0.0329,-0.032,-0.0362,-0.0383,-0.0325,-0.026,-0.0243,-0.0462,-0.0464,-0.0465,-0.0466,0,0,-0.0632,-0.0583,-0.0568,-0.0534,-0.0508,-0.0488,-0.0446,-0.0408,-0.0357,-0.0341,-0.0266,-0.0267,-0.0252,-0.0252,-0.0264,-0.0241,-0.0136,-0.0258,-0.0258,-0.0178,-0.0009,0.0115,0.0144,-0.0155,-0.0152,-0.015,0.0019,0,-0.0566,-0.0493,-0.0481,-0.0405,-0.0366,-0.0362,-0.0323,-0.0294,-0.0269,-0.0205,-0.0212,-0.0152,-0.0211,-0.0166,-0.0153,-0.0142,-0.0093,-0.0176,-0.0089,-0.0085,0.0028,0.0167,-0.005,0.0093,0.0035,0.0038,0.004,0,-0.0485,-0.0451,-0.0367,-0.0309,-0.0287,-0.0245,-0.0171,-0.0138,-0.0085,-0.0052,-0.0006,-0.0003,0.005,-0.0016,0.0049,0.0007,0.0021,0.0014,0.0019,0.0116,0.0069,0.0018,0.0125,0.0067,0.0065,0.0063,0.0061,0,-0.0438,-0.0361,-0.0293,-0.0272,-0.0217,-0.016,-0.0126,-0.0073,-0.002,0.0067,0.0135,0.0165,0.0231,0.0222,0.0226,0.0156,0.0303,0.0198,0.0323,0.0331,0.0156,0.0146,0.0263,0.0263,0.0263,0.0262,0.0262,0,-0.0373,-0.0312,-0.0258,-0.0219,-0.0128,-0.0101,0.0005,0.0045,0.0131,0.0218,0.0233,0.0324,0.0297,0.0364,0.0316,0.042,0.039,0.0391,0.0403,0.0185,0.0177,0.0137,0.012,0.0269,0.0267,0.0266,0.0265,0,-0.033,-0.0293,-0.0212,-0.0135,-0.0101,-0.0033,0.0076,0.0147,0.0234,0.0357,0.0405,0.0494,0.0614,0.0602,0.0635,0.0593,0.0627,0.0663,0.0444,0.0431,0.0599,0.0584,0.0823,0.0829,0.0834,0.0839,0.0842,0,-0.0306,-0.0257,-0.016,-0.0107,-0.006,0.0039,0.0107,0.0195,0.0272,0.0457,0.0524,0.0703,0.0805,0.0944,0.092,0.0947,0.0855,0.0761,0.0588,0.0679,0.0665,0.0642,0.0621,0.0375,0.0375,0.0374,0.0374,0,-0.0264,-0.0219,-0.0167,-0.0059,0.0029,0.0111,0.022,0.0289,0.041,0.0533,0.0708,0.0814,0.0996,0.0965,0.1055,0.099,0.0736,0.0766,0.0915,0.0303,0.0281,0.026,0.0248,0.0371,0.0371,0.0372,0.0372,0.0372,-0.0228,-0.0189,-0.0107,-0.0001,0.0085,0.0181,0.0263,0.0366,0.05,0.0658,0.0758,0.0873,0.0807,0.0914,0.0901,0.0893,0.0936,0.0714,0.0703,0.0695,0.065,0.0642,0.0791,0.0794,0.0796,0.0798,0.08,0,-0.0183,-0.0127,-0.0049,0.0068,0.0153,0.0217,0.0339,0.0396,0.0547,0.0654,0.0784,0.0658,0.0656,0.0678,0.0686,0.0701,0.0562,0.0607,0.0334,0.0337,0.0339,0.0264,0.031,0.031,0.031,0.031,0,0,-0.0147,-0.0071,-0.0035,0.0114,0.0207,0.0342,0.0421,0.0486,0.0549,0.0605,0.0644,0.0637,0.0635,0.0464,0.0401,0.0398,0.037,0.0358,0.0726,0.0405,0.0409,0.0356,0.0243,0,0,0,0,0]},{"header":{"parameterUnit":"m.s-1","parameterCategory":2,"la1":30.2991,"la2":30.254,"lo1":-89.0895,"lo2":-89.0444,"dy":0.0017,"dx":0.0017,"nx":28,"ny":28,"refTime":"2024-06-29T03:00:00:Z","depth":"2","parameterNumber":3,"parameterNumberName":"V-component_of_CURRENTS"},"data":[0,0,0,0,0,0,0,0,0,0,0,0,0,0,0,0,0,0,0,0,0,0,0,0,0,0,0,0,0,0,0,0,0,0,0,0,0,0,0,0,0,0,0,0,0,0,0,0,0,0,0,0,0,0,0,0,0,0,-0.0074,-0.0074,0,-0.0115,-0.0115,-0.0115,-0.0198,-0.0199,-0.0201,-0.0203,-0.0242,-0.0242,-0.0241,0,0,0,0,0,0,0,0,0,0,0,0,0,-0.0052,-0.0052,-0.0074,-0.0074,-0.0075,-0.0114,-0.0115,-0.0115,-0.0197,-0.0199,-0.0202,-0.0204,-0.0243,-0.0242,-0.0241,0,0,0,0,0,0,0,0,0,0,0,0,0,-0.0073,-0.0052,-0.0074,-0.0122,-0.0126,-0.0114,-0.0115,-0.0115,-0.0197,-0.02,-0.0202,-0.0205,-0.0243,-0.0242,-0.0241,-0.0183,0,0,-0.0238,-0.0238,0,0,0,0,0,0,0,0,-0.0072,-0.0073,-0.0114,-0.0118,-0.0124,-0.0155,-0.0122,-0.0138,-0.0196,-0.0169,-0.0203,-0.0206,-0.0212,-0.0214,-0.0214,-0.0185,-0.0187,-0.0238,-0.0238,-0.0237,-0.0237,0,0,0,0,0,0,0,-0.007,-0.0072,-0.0089,-0.0114,-0.012,-0.0136,-0.0142,-0.0125,-0.0174,-0.0171,-0.0178,-0.0183,-0.0215,-0.0214,-0.0215,-0.0187,-0.0238,-0.0238,-0.0237,-0.0237,-0.0237,-0.0237,0,0,0,0,0,0,-0.0065,-0.007,-0.0087,-0.009,-0.0105,-0.0135,-0.0141,-0.0141,-0.0174,-0.0182,-0.0181,-0.0187,-0.0214,-0.0216,-0.0217,-0.0251,-0.0237,-0.0237,-0.0236,-0.0236,-0.0237,-0.0238,0,0,0,0,0,0,-0.0064,-0.0066,-0.0086,-0.0083,-0.0087,-0.0132,-0.0132,-0.0141,-0.0177,-0.0182,-0.0191,-0.0213,-0.0217,-0.0218,-0.0245,-0.0249,-0.0236,-0.0235,-0.0236,-0.0237,-0.0237,-0.0253,0,0,0,0,0,0,-0.0063,-0.0065,-0.0071,-0.0082,-0.0087,-0.009,-0.013,-0.014,-0.0175,-0.0184,-0.0211,-0.0216,-0.0219,-0.0246,-0.0244,-0.0248,-0.0235,-0.0235,-0.0236,-0.0237,-0.0252,-0.0254,-0.0256,0,0,0,0,0,-0.0062,-0.0047,-0.0071,-0.0074,-0.0091,-0.009,-0.0093,-0.0134,-0.0174,-0.0179,-0.0219,-0.0217,-0.0251,-0.0246,-0.0243,-0.0247,-0.0235,-0.0236,-0.0237,-0.0251,-0.0254,-0.0256,0,0,0,0,0,0,-0.0031,-0.0054,-0.0081,-0.0073,-0.0091,-0.0105,-0.0113,-0.0145,-0.0178,-0.0201,-0.022,-0.0226,-0.0253,-0.0245,-0.0239,-0.0251,-0.0242,-0.0243,-0.0254,-0.0256,-0.0259,-0.0233,-0.0234,0,0,0,0,0,-0.0028,-0.0033,-0.0054,-0.0051,-0.0061,-0.0095,-0.0106,-0.0135,-0.0161,-0.0181,-0.0207,-0.0231,-0.0244,-0.0252,-0.0259,-0.0255,-0.0246,-0.0257,-0.0259,-0.0261,-0.0239,-0.0246,-0.0246,-0.0242,-0.0242,-0.0242,0,0,-0.0013,-0.003,-0.0032,-0.0047,-0.0067,-0.0067,-0.0108,-0.0127,-0.0136,-0.0175,-0.0207,-0.0241,-0.0248,-0.0261,-0.027,-0.026,-0.0261,-0.0263,-0.0264,-0.0241,-0.0247,-0.0247,-0.0247,-0.0242,-0.0242,-0.0242,0,0,0.0021,-0.0005,0.0,-0.0012,-0.0045,-0.0061,-0.0073,-0.0108,-0.0138,-0.0163,-0.0206,-0.0244,-0.0256,-0.0268,-0.0272,-0.0283,-0.0278,-0.0296,-0.0277,-0.0284,-0.0284,-0.0284,-0.0284,-0.0284,-0.029,-0.029,-0.029,0,0.0033,0.0037,0.0004,0.0007,-0.0003,-0.006,-0.0054,-0.0075,-0.0121,-0.014,-0.0177,-0.0229,-0.025,-0.0256,-0.0277,-0.0285,-0.0291,-0.0268,-0.0286,-0.0286,-0.0285,-0.0285,-0.0285,-0.0291,-0.0291,-0.0291,-0.0291,0,0.0071,0.0068,0.0073,0.0051,0.0041,0.0036,0.0003,-0.0028,-0.0082,-0.0109,-0.0154,-0.0195,-0.0226,-0.0246,-0.0267,-0.0277,-0.0285,-0.0295,-0.0277,-0.0286,-0.0286,-0.0285,-0.0292,-0.0292,-0.0292,-0.0292,0,0,0.0108,0.0099,0.0096,0.0093,0.0058,0.0058,0.004,0.0015,-0.0003,-0.0064,-0.0082,-0.0135,-0.0186,-0.0193,-0.0234,-0.0244,-0.0267,-0.0273,-0.0273,-0.0268,-0.0285,-0.0266,-0.0263,-0.0291,-0.0291,-0.0291,-0.029,0,0.0137,0.0157,0.0141,0.0154,0.0159,0.0112,0.0109,0.0073,0.0026,-0.0006,-0.0063,-0.0099,-0.0155,-0.0189,-0.0211,-0.0258,-0.0264,-0.0265,-0.0279,-0.0279,-0.0257,-0.0261,-0.0254,-0.0251,-0.0289,-0.0289,-0.0289,0,0.017,0.0177,0.0196,0.0198,0.0195,0.0192,0.0159,0.0151,0.0101,0.0062,0.0009,-0.0047,-0.0094,-0.0136,-0.0196,-0.0203,-0.024,-0.0266,-0.0267,-0.0234,-0.0257,-0.0246,-0.0247,-0.0287,-0.0287,-0.0287,-0.0287,0,0.0201,0.0215,0.0226,0.0226,0.022,0.0212,0.02,0.016,0.0159,0.0097,0.0083,0.0008,-0.0027,-0.0087,-0.0177,-0.0192,-0.0226,-0.025,-0.0254,-0.0253,-0.0237,-0.0235,-0.0263,-0.0263,-0.0263,-0.0263,-0.0263,0,0.0237,0.0249,0.0238,0.0246,0.0263,0.0242,0.0248,0.0221,0.0201,0.0211,0.0114,0.0114,-0.0018,-0.0069,-0.0147,-0.02,-0.0207,-0.0237,-0.0247,-0.0245,-0.0243,-0.0263,-0.0263,-0.0263,-0.0263,-0.0263,-0.0263,0,0.0275,0.0264,0.0285,0.0279,0.0277,0.0286,0.0292,0.0305,0.0269,0.028,0.0262,0.0191,0.0118,0.0003,-0.0089,-0.0146,-0.0206,-0.0217,-0.0204,-0.0213,-0.0233,-0.0234,-0.0213,-0.0213,-0.0212,-0.0211,-0.0211,0,0.0303,0.0312,0.0311,0.0324,0.032,0.0331,0.0347,0.0332,0.0352,0.0341,0.0362,0.029,0.0263,0.0132,-0.0003,-0.0119,-0.0165,-0.018,-0.0196,-0.0213,-0.0226,-0.0228,-0.023,-0.0192,-0.0191,-0.0191,-0.019,0,0.0361,0.0343,0.0359,0.0378,0.0392,0.0429,0.0449,0.0472,0.0464,0.048,0.0504,0.0487,0.036,0.0228,0.0053,-0.002,-0.0169,-0.017,-0.0193,-0.02,-0.0191,-0.0204,-0.0207,-0.0186,-0.0186,-0.0187,-0.0187,-0.0187,0.04,0.0417,0.042,0.0441,0.0468,0.0511,0.0542,0.058,0.0624,0.0651,0.0641,0.0592,0.0406,0.0178,0.0057,-0.009,-0.0082,-0.0158,-0.0161,-0.0163,-0.0156,-0.0146,-0.013,-0.013,-0.013,-0.013,-0.013,0,0.0449,0.0452,0.0486,0.0515,0.0559,0.0552,0.0607,0.0633,0.069,0.0712,0.0749,0.0515,0.0406,0.0192,-0.0001,-0.0095,-0.0111,-0.0147,-0.0168,-0.017,-0.0173,-0.0168,-0.0144,-0.0145,-0.0145,-0.0146,0,0,0.0474,0.0502,0.0514,0.0582,0.0603,0.0647,0.0672,0.0711,0.0717,0.0695,0.064,0.0654,0.0375,0.0206,0.0065,-0.004,-0.0073,-0.0052,-0.0028,-0.0035,-0.0037,-0.0166,-0.0158,0,0,0,0,0]}],[{"header":{"parameterUnit":"m.s-1","parameterCategory":2,"la1":30.2991,"la2":30.254,"lo1":-89.0895,"lo2":-89.0444,"dy":0.0017,"dx":0.0017,"nx":28,"ny":28,"refTime":"2024-06-29T03:00:00:Z","depth":"4","parameterNumber":2,"parameterNumberName":"U-component_of_CURRENTS"},"data":[0,0,0,0,0,0,0,0,0,0,0,0,0,0,0,0,0,0,0,0,0,0,0,0,0,0,0,0,0,0,0,0,0,0,0,0,0,0,0,0,0,0,0,0,0,0,0,0,0,0,0,0,0,0,0,0,0,0,-0.0164,-0.0164,0,-0.0172,-0.0172,-0.0173,-0.0186,-0.0186,-0.0186,-0.0186,-0.0237,-0.0238,-0.0239,0,0,0,0,0,0,0,0,0,0,0,0,0,-0.0188,-0.0188,-0.0164,-0.0164,-0.0164,-0.0172,-0.0172,-0.0173,-0.0186,-0.0186,-0.0186,-0.0186,-0.0236,-0.0238,-0.0239,0,0,0,0,0,0,0,0,0,0,0,0,0,-0.0187,-0.0188,-0.0164,-0.017,-0.017,-0.0172,-0.0172,-0.0173,-0.0186,-0.0186,-0.0186,-0.0186,-0.0236,-0.0238,-0.024,-0.0252,0,0,-0.0246,-0.0247,0,0,0,0,0,0,0,0,-0.0187,-0.0187,-0.0169,-0.0169,-0.017,-0.0176,-0.0199,-0.02,-0.0186,-0.0183,-0.0186,-0.0186,-0.0219,-0.0222,-0.0226,-0.0254,-0.0256,-0.0246,-0.0247,-0.0248,-0.0249,0,0,0,0,0,0,0,-0.0187,-0.0187,-0.017,-0.0169,-0.0169,-0.0181,-0.0181,-0.02,-0.0203,-0.0183,-0.0183,-0.018,-0.022,-0.0224,-0.0228,-0.0257,-0.0246,-0.0248,-0.0249,-0.025,-0.0331,-0.0332,0,0,0,0,0,0,-0.018,-0.0187,-0.017,-0.017,-0.0176,-0.018,-0.018,-0.0176,-0.0202,-0.0205,-0.018,-0.0181,-0.0221,-0.0225,-0.023,-0.0276,-0.0248,-0.025,-0.0251,-0.033,-0.0331,-0.0332,0,0,0,0,0,0,-0.018,-0.0178,-0.0169,-0.0177,-0.0176,-0.0179,-0.0175,-0.0176,-0.018,-0.0199,-0.0203,-0.0182,-0.0221,-0.0227,-0.0247,-0.0277,-0.0251,-0.0253,-0.0329,-0.033,-0.0331,-0.0349,0,0,0,0,0,0,-0.0181,-0.0178,-0.0177,-0.0176,-0.0175,-0.017,-0.0174,-0.0176,-0.0177,-0.0178,-0.0203,-0.0207,-0.0222,-0.0244,-0.0249,-0.0279,-0.0254,-0.0327,-0.0329,-0.0331,-0.0347,-0.0351,-0.0354,0,0,0,0,0,-0.0182,-0.0178,-0.0177,-0.0175,-0.0171,-0.0169,-0.017,-0.0175,-0.0177,-0.0179,-0.0196,-0.0206,-0.0259,-0.0245,-0.0251,-0.0283,-0.0327,-0.0329,-0.0331,-0.0346,-0.035,-0.0354,0,0,0,0,0,0,-0.0187,-0.0179,-0.0177,-0.0171,-0.0169,-0.0171,-0.0173,-0.0174,-0.0188,-0.0192,-0.021,-0.0216,-0.0247,-0.0259,-0.0243,-0.0312,-0.0299,-0.0302,-0.0308,-0.0313,-0.0316,-0.0318,-0.0256,0,0,0,0,0,-0.0186,-0.0182,-0.0176,-0.0171,-0.0171,-0.0172,-0.0172,-0.0174,-0.0183,-0.0189,-0.0205,-0.0231,-0.0261,-0.0279,-0.03,-0.0333,-0.033,-0.036,-0.0364,-0.0366,-0.0373,-0.0397,-0.0403,-0.0339,-0.0339,-0.0339,0,0,-0.0186,-0.018,-0.0178,-0.0171,-0.0173,-0.0172,-0.0173,-0.0174,-0.0178,-0.0193,-0.0211,-0.0237,-0.0269,-0.0308,-0.0325,-0.0322,-0.0378,-0.0369,-0.0371,-0.0376,-0.04,-0.0406,-0.0412,-0.034,-0.034,-0.034,0,0,-0.0182,-0.018,-0.0176,-0.0175,-0.0172,-0.0173,-0.0171,-0.0175,-0.0184,-0.02,-0.0221,-0.0255,-0.0295,-0.0327,-0.0349,-0.0381,-0.0389,-0.0403,-0.043,-0.0454,-0.046,-0.0465,-0.0442,-0.0445,-0.0412,-0.0412,-0.0412,0,-0.0182,-0.0173,-0.0174,-0.0171,-0.0169,-0.0172,-0.0169,-0.0179,-0.0189,-0.0199,-0.0207,-0.0275,-0.0303,-0.0356,-0.0386,-0.0389,-0.0395,-0.0411,-0.0458,-0.0463,-0.0468,-0.0444,-0.0447,-0.0413,-0.0413,-0.0413,-0.0413,0,-0.0173,-0.0169,-0.0167,-0.0163,-0.0165,-0.0162,-0.0171,-0.0179,-0.0192,-0.0204,-0.0248,-0.0292,-0.0336,-0.0362,-0.0394,-0.0455,-0.0443,-0.0452,-0.0445,-0.0475,-0.0448,-0.045,-0.0415,-0.0414,-0.0414,-0.0414,0,0,-0.016,-0.016,-0.0158,-0.0154,-0.016,-0.0156,-0.017,-0.0179,-0.0185,-0.0221,-0.0238,-0.0322,-0.0354,-0.0383,-0.0428,-0.047,-0.0509,-0.0495,-0.0496,-0.0467,-0.0541,-0.0405,-0.0394,-0.054,-0.0542,-0.0543,-0.0498,0,-0.0149,-0.0136,-0.0144,-0.0137,-0.0132,-0.0145,-0.0155,-0.0169,-0.0188,-0.0206,-0.0264,-0.0309,-0.0359,-0.0403,-0.045,-0.0499,-0.0523,-0.0518,-0.0522,-0.0521,-0.0392,-0.0395,-0.0547,-0.05,-0.0501,-0.0501,-0.0501,0,-0.0134,-0.0127,-0.0115,-0.0119,-0.0119,-0.0121,-0.013,-0.0144,-0.0176,-0.0201,-0.0255,-0.0298,-0.038,-0.0412,-0.0496,-0.0499,-0.0529,-0.0554,-0.0552,-0.0424,-0.039,-0.0472,-0.0506,-0.0505,-0.0505,-0.0505,-0.0505,0,-0.011,-0.0107,-0.0094,-0.0094,-0.0101,-0.0104,-0.0116,-0.014,-0.0154,-0.0209,-0.0226,-0.0307,-0.0355,-0.042,-0.0469,-0.0509,-0.0516,-0.0563,-0.045,-0.0439,-0.0568,-0.0564,-0.0604,-0.0605,-0.0605,-0.0605,-0.0605,0,-0.009,-0.0081,-0.0081,-0.0073,-0.0064,-0.0087,-0.009,-0.0113,-0.0147,-0.0154,-0.0235,-0.0245,-0.0372,-0.0384,-0.0441,-0.0419,-0.0485,-0.0444,-0.0423,-0.0572,-0.0569,-0.0568,-0.0564,-0.0603,-0.0603,-0.0604,-0.0604,0,-0.0067,-0.0065,-0.005,-0.0051,-0.005,-0.0049,-0.007,-0.0075,-0.012,-0.013,-0.0158,-0.0215,-0.0237,-0.0285,-0.0356,-0.0357,-0.0364,-0.0333,-0.0431,-0.0418,-0.0285,-0.0283,-0.0237,-0.0232,-0.0228,-0.0224,-0.0221,0,-0.0055,-0.0043,-0.0027,-0.0015,-0.0015,-0.0019,-0.0019,-0.006,-0.0068,-0.009,-0.0087,-0.0111,-0.014,-0.0111,-0.0173,-0.0197,-0.0211,-0.02,-0.0314,-0.0265,-0.025,-0.0255,-0.0259,-0.0214,-0.0213,-0.0212,-0.0211,0,-0.0036,-0.0026,-0.0012,0.0014,0.0024,0.0035,0.0029,0.0028,-0.0011,-0.0042,-0.0029,-0.0033,-0.0012,-0.0052,-0.0035,-0.0068,-0.0212,-0.0157,-0.0169,-0.0277,-0.0237,-0.0227,-0.0236,-0.0196,-0.0198,-0.02,-0.0201,0,-0.0024,-0.0005,0.0018,0.004,0.0063,0.0086,0.0076,0.0073,0.006,0.0022,0.0049,0.0035,0.0006,0.0024,0.004,0.0037,-0.0015,-0.0058,-0.0077,-0.0094,-0.0066,0.0005,0.0147,0,0,0,0,0,-0.0017,0.0012,0.004,0.0075,0.0101,0.0112,0.0112,0.0094,0.0069,0.0084,0.0056,0.0077,0.0093,0.0096,0.011,0.0106,-0.0007,0.0127,-0.0066,-0.0113,-0.0131,-0.011,0,0,0,0,0,0,-0.0009,0.0022,0.0046,0.0101,0.0129,0.0157,0.0158,0.014,0.0138,0.011,0.011,0.0098,0.0103,0.008,0.0115,0.0117,0.0003,0.0123,0.0124,-0.0104,-0.0119,-0.0133,-0.0118,0,0,0,0,0]},{"header":{"parameterUnit":"m.s-1","parameterCategory":2,"la1":30.2991,"la2":30.254,"lo1":-89.0895,"lo2":-89.0444,"dy":0.0017,"dx":0.0017,"nx":28,"ny":28,"refTime":"2024-06-29T03:00:00:Z","depth":"4","parameterNumber":3,"parameterNumberName":"V-component_of_CURRENTS"},"data":[0,0,0,0,0,0,0,0,0,0,0,0,0,0,0,0,0,0,0,0,0,0,0,0,0,0,0,0,0,0,0,0,0,0,0,0,0,0,0,0,0,0,0,0,0,0,0,0,0,0,0,0,0,0,0,0,0,0,-0.0042,-0.0043,0,-0.0065,-0.0065,-0.0066,-0.0054,-0.0054,-0.0053,-0.0052,-0.0064,-0.0065,-0.0066,0,0,0,0,0,0,0,0,0,0,0,0,0,0.0014,0.0013,-0.0042,-0.0043,-0.0043,-0.0065,-0.0065,-0.0066,-0.0054,-0.0054,-0.0053,-0.0052,-0.0064,-0.0065,-0.0066,0,0,0,0,0,0,0,0,0,0,0,0,0,-0.001,0.0012,-0.0042,-0.004,-0.004,-0.0065,-0.0065,-0.0066,-0.0054,-0.0054,-0.0053,-0.0052,-0.0063,-0.0065,-0.0066,-0.0091,0,0,-0.007,-0.007,0,0,0,0,0,0,0,0,-0.0008,-0.0012,-0.004,-0.004,-0.004,-0.0056,-0.005,-0.0074,-0.0055,-0.0049,-0.0052,-0.0051,-0.0061,-0.0063,-0.0069,-0.0092,-0.0092,-0.007,-0.0071,-0.0071,-0.0072,0,0,0,0,0,0,0,-0.0007,-0.0011,-0.0051,-0.004,-0.0041,-0.0037,-0.0039,-0.0054,-0.0059,-0.0049,-0.0049,-0.0052,-0.0061,-0.0068,-0.0069,-0.0093,-0.007,-0.0071,-0.0072,-0.0072,-0.0154,-0.0156,0,0,0,0,0,0,-0.0006,-0.001,-0.005,-0.0052,-0.0022,-0.0039,-0.0041,-0.0052,-0.0059,-0.006,-0.0052,-0.0051,-0.0066,-0.0067,-0.0069,-0.011,-0.0071,-0.0072,-0.0073,-0.0153,-0.0155,-0.0156,0,0,0,0,0,0,-0.0005,-0.001,-0.005,-0.0031,-0.0035,-0.0041,-0.0052,-0.0053,-0.0059,-0.0062,-0.0062,-0.0058,-0.0065,-0.0067,-0.0089,-0.011,-0.0073,-0.0074,-0.0151,-0.0153,-0.0155,-0.0186,0,0,0,0,0,0,-0.0003,-0.0009,-0.0019,-0.0031,-0.0037,-0.0069,-0.0053,-0.0054,-0.0062,-0.0061,-0.0067,-0.0067,-0.0065,-0.0087,-0.0091,-0.0111,-0.0075,-0.0149,-0.0152,-0.0155,-0.0183,-0.0188,-0.0193,0,0,0,0,0,-0.0001,-0.0019,-0.002,-0.0025,-0.005,-0.007,-0.0072,-0.0072,-0.0063,-0.0073,-0.0078,-0.0067,-0.0106,-0.009,-0.0093,-0.0114,-0.0148,-0.0151,-0.0155,-0.018,-0.0187,-0.0193,0,0,0,0,0,0,-0.0002,-0.002,-0.0021,-0.0044,-0.0057,-0.0068,-0.0077,-0.0077,-0.0089,-0.0087,-0.0084,-0.0085,-0.0116,-0.0114,-0.0095,-0.0148,-0.0126,-0.013,-0.0145,-0.0152,-0.0157,-0.0154,-0.0076,0,0,0,0,0,-0.0007,-0.0025,-0.0039,-0.0058,-0.0065,-0.0072,-0.008,-0.0083,-0.0093,-0.0097,-0.0103,-0.0114,-0.0134,-0.0139,-0.0158,-0.0183,-0.017,-0.02,-0.0206,-0.021,-0.0212,-0.0207,-0.0211,-0.0167,-0.0167,-0.0166,0,0,-0.0014,-0.0026,-0.0036,-0.0059,-0.0068,-0.0088,-0.0075,-0.0092,-0.0112,-0.0098,-0.0127,-0.0136,-0.0147,-0.0178,-0.0191,-0.0175,-0.0218,-0.0214,-0.0217,-0.0217,-0.021,-0.0214,-0.0218,-0.0169,-0.0168,-0.0168,0,0,-0.0033,-0.0045,-0.0064,-0.0078,-0.0095,-0.0103,-0.0109,-0.0125,-0.0134,-0.0166,-0.0163,-0.0184,-0.0211,-0.0223,-0.0232,-0.028,-0.025,-0.0284,-0.0301,-0.0296,-0.0299,-0.0302,-0.0293,-0.0294,-0.028,-0.028,-0.028,0,-0.0038,-0.0065,-0.0073,-0.0094,-0.0109,-0.0111,-0.0135,-0.015,-0.0173,-0.0188,-0.018,-0.023,-0.0236,-0.0273,-0.0286,-0.0292,-0.0275,-0.0273,-0.0301,-0.0303,-0.0305,-0.0295,-0.0296,-0.0282,-0.0282,-0.0281,-0.0281,0,-0.0069,-0.0093,-0.0105,-0.0133,-0.0152,-0.0173,-0.0193,-0.0212,-0.0222,-0.0239,-0.0281,-0.0292,-0.0317,-0.0326,-0.0318,-0.0342,-0.0321,-0.031,-0.0279,-0.0311,-0.0299,-0.03,-0.0284,-0.0284,-0.0283,-0.0283,0,0,-0.0074,-0.0118,-0.0123,-0.0141,-0.0174,-0.0191,-0.0228,-0.0263,-0.0284,-0.0312,-0.0344,-0.0379,-0.0376,-0.0387,-0.0382,-0.0374,-0.0374,-0.0341,-0.034,-0.0322,-0.0351,-0.0327,-0.0325,-0.0355,-0.0356,-0.0356,-0.0337,0,-0.0095,-0.0136,-0.0159,-0.0202,-0.0223,-0.0243,-0.0277,-0.0309,-0.0332,-0.0364,-0.0385,-0.0417,-0.0402,-0.041,-0.0404,-0.0385,-0.0376,-0.038,-0.0332,-0.0331,-0.0296,-0.0325,-0.0357,-0.0338,-0.0338,-0.0338,-0.0338,0,-0.0117,-0.0141,-0.0185,-0.0232,-0.0244,-0.0275,-0.032,-0.0352,-0.0397,-0.0416,-0.0447,-0.0454,-0.0471,-0.0445,-0.0428,-0.0423,-0.039,-0.0369,-0.0367,-0.0333,-0.0308,-0.03,-0.0338,-0.0338,-0.0338,-0.0338,-0.0338,0,-0.0108,-0.0161,-0.0194,-0.0211,-0.0263,-0.0293,-0.0326,-0.0372,-0.0397,-0.0449,-0.0464,-0.049,-0.0496,-0.047,-0.0432,-0.0422,-0.0397,-0.0382,-0.0332,-0.033,-0.0341,-0.0339,-0.0363,-0.0363,-0.0363,-0.0363,-0.0363,0,-0.012,-0.0148,-0.0195,-0.0213,-0.0255,-0.0298,-0.0345,-0.038,-0.0427,-0.0448,-0.0487,-0.049,-0.0495,-0.048,-0.0444,-0.0393,-0.0409,-0.0341,-0.0326,-0.0356,-0.0356,-0.0341,-0.0339,-0.0362,-0.0363,-0.0363,-0.0363,0,-0.0114,-0.0142,-0.0179,-0.0233,-0.0253,-0.0286,-0.0352,-0.0379,-0.0427,-0.0451,-0.0466,-0.0491,-0.0469,-0.0467,-0.0428,-0.0402,-0.0363,-0.0338,-0.0376,-0.0363,-0.0294,-0.0294,-0.0284,-0.0283,-0.0282,-0.0281,-0.0281,0,-0.0118,-0.0135,-0.0183,-0.02,-0.0231,-0.0283,-0.0314,-0.0375,-0.0392,-0.043,-0.0428,-0.0436,-0.044,-0.0381,-0.038,-0.0343,-0.0325,-0.0317,-0.0303,-0.0301,-0.0287,-0.0289,-0.0289,-0.0279,-0.0279,-0.0279,-0.0279,0,-0.012,-0.0133,-0.0158,-0.0187,-0.0222,-0.026,-0.0304,-0.0314,-0.0363,-0.0397,-0.0377,-0.0373,-0.0354,-0.034,-0.0329,-0.0293,-0.0336,-0.0308,-0.0309,-0.0296,-0.0295,-0.0283,-0.0285,-0.0276,-0.0276,-0.0277,-0.0277,0,-0.0118,-0.0127,-0.0148,-0.0177,-0.0209,-0.0231,-0.0262,-0.0276,-0.03,-0.0331,-0.031,-0.032,-0.0331,-0.0311,-0.0289,-0.0276,-0.0257,-0.0243,-0.0247,-0.025,-0.0249,-0.0244,-0.02,0,0,0,0,0,-0.0119,-0.0122,-0.0138,-0.0165,-0.0191,-0.0211,-0.0248,-0.0273,-0.0302,-0.0271,-0.0294,-0.0269,-0.0254,-0.0258,-0.0234,-0.0273,-0.0265,-0.0244,-0.0253,-0.026,-0.0264,-0.0267,0,0,0,0,0,0,-0.012,-0.0129,-0.013,-0.0146,-0.0159,-0.019,-0.0213,-0.0235,-0.0219,-0.0241,-0.0229,-0.0243,-0.023,-0.0254,-0.0223,-0.0225,-0.0223,-0.0248,-0.0247,-0.0259,-0.0261,-0.0264,-0.0269,0,0,0,0,0]}]]